Location: CNYAC Observatory
(43.2150°N, 74.9500°W)
Time: 12:25:31
(UTC-05:00)

Cosmos 1975 Rocket - Visible Passes

Search period start: 28 February 2015 00:00
Search period end: 10 March 2015 01:00
Orbit: 605 x 635 km, 82.5° (Epoch: 26 February)

Date Brightness Start Highest point End Pass type
(mag) Time Alt. Az. Time Alt. Az. Time Alt. Az.
28 Feb 5.2 03:56:02 19° N 03:56:02 19° N 03:57:20 10° N visible
01 Mar 5.2 04:13:50 17° N 04:13:50 17° N 04:14:56 10° N visible
02 Mar 5.3 04:31:36 13° NNW 04:31:36 13° NNW 04:32:14 10° NNW visible
03 Mar 6.0 03:12:10 11° NNE 03:12:10 11° NNE 03:12:22 10° NNE visible
04 Mar 5.8 03:29:52 12° N 03:29:52 12° N 03:30:09 10° N visible
05 Mar 5.7 03:47:32 11° N 03:47:32 11° N 03:47:43 10° N visible
